Regional Weather Roundup
Issued by NWS

Home | Current Version | Previous Version | Graphics & Text | Print | Product List | Glossary Off
Versions: 1 2 3 4 5 6 7 8 9 10 11 12 13 14 15 16 17 18 19 20 21 22 23 24 25 26 27 28 29 30 31 32 33 34 35 36 37 38 39 40 41 42 43 44 45 46 47 48 49 50

000
ASUS43 KDMX 241806
RWRIA

WEATHER ROUNDUP FOR IOWA
NATIONAL WEATHER SERVICE DES MOINES IA
1200 PM CST SAT FEB 24 2018

NOTE: "FAIR" INDICATES FEW OR NO CLOUDS BELOW 12,000 FEET WITH NO
SIGNIFICANT WEATHER AND/OR OBSTRUCTIONS TO VISIBILITY.

* - THESE STATIONS ARE NOT NWS STATIONS...THUS NOT UNDER NWS
QUALITY CONTROL.  THEY ALSO DO NOT REPORT WEATHER SUCH
AS PRECIPITATION OR FOG.

IAZ001>003-012>014-020>022-031>034-043>046-241900-
   NORTHWEST IOWA

CITY           SKY/WX    TMP DP  RH WIND       PRES   REMARKS
CARROLL *      FOG       30  28  93 SE7       29.82F VSB 1   WCI  23
CHEROKEE *     LGT SNOW  22  22  98 E7        29.85F VSB 1   WCI  14
DENISON *      LGT RAIN  25  25 100 N5        29.84F VSB 1/2 WCI  19
LE MARS *      LGT SNOW  21  19  93 NE9       29.84F WCI  11
ORANGE CITY *  LGT SNOW  19  19 100 E5        29.83F VSB 3/4 WCI  13
SHELDON *      SNOW      19  19 100 E9        29.82F VSB 1/2 WCI   9
SIOUX CITY     LGT SNOW  22  19  89 E10       29.84F VSB 1   WCI  11
6HR MIN TEMP:  20; 6HR MAX TEMP:  22; 6HR PCP:  0.07;

SPENCER        LGT SNOW  25  19  78 E7        29.86F VSB 1   WCI  17
6HR MIN TEMP:  17; 6HR MAX TEMP:  26; 6HR PCP: TRACE;

STORM LAKE *   FOG       21  21 100 E9        29.82F VSB 1   WCI  11
$$

IAZ055>058-069>071-079>083-090>094-241900-
   SOUTHWEST IOWA

CITY           SKY/WX    TMP DP  RH WIND       PRES   REMARKS
ATLANTIC *     PTSUNNY   30  30 100 SE6       29.82F FOG     WCI  24
AUDUBON *      MIX PCPN  30  28  93 E3        29.81F
CLARINDA *     MIX PCPN  32  32 100 SE5       29.82F WCI  27
COUNCIL BLFS * CLOUDY    28  28 100 CALM      29.82F FOG
CRESTON *      FOG       32  32 100 SE13      29.81F VSB 3/4 WCI  22
HARLAN  *      PTSUNNY   28  28 100 CALM      29.85F FOG
LAMONI         FOG       32  31  96 SE7       29.82F VSB 1   WCI  26
6HR MIN TEMP:  27; 6HR MAX TEMP:  32; 6HR PCP:  0.06;

RED OAK *      FOG       32  32 100 E3        29.81F VSB 1
SHENANDOAH *   CLOUDY    32  32 100 CALM      29.83S FOG
$$

IAZ047>049-059>061-072>074-084-241900-
   CENTRAL IOWA

CITY           SKY/WX    TMP DP  RH WIND       PRES   REMARKS
AMES           CLOUDY    32  30  92 SE13      29.84F FOG     WCI  22
6HR MIN TEMP:  23; 6HR MAX TEMP:  32; 6HR PCP:  0.01;

ANKENY *       CLOUDY    32  30  93 SE14G21   29.85F FOG     WCI  22
BOONE *        FOG       32  32 100 MISG      29.81F VSB 1
CHARITON *     CLOUDY    32  32 100 SE13G22   29.82F FOG     WCI  22
DES MOINES     DRIZZLE   33  31  92 SE10      29.83F WCI  25
6HR MIN TEMP:  25; 6HR MAX TEMP:  33; 6HR PCP:  0.03;

GRINNELL*      LGT RAIN  32  31  96 E18       29.86F WCI  21
KNOXVILLE *    CLOUDY    32  32 100 SE13      29.82F FOG     WCI  22
MARSHALLTOWN   CLOUDY    33  32  96 SE18      29.85F FOG     WCI  22
6HR MIN TEMP:  23; 6HR MAX TEMP:  33; 6HR PCP: TRACE;

NEWTON *       MIX PCPN  32  32 100 SE15G25   29.84F VSB 1   WCI  22
PELLA *        CLOUDY    33  32  96 E10G16    29.85F FOG     WCI  25
PERRY *        CLOUDY    32  32  99 E9        29.82F FOG     WCI  24
$$

IAZ004>006-015-016-023>025-035-036-241900-
   NORTH CENTRAL IOWA

CITY           SKY/WX    TMP DP  RH WIND       PRES   REMARKS
ALGONA *       LGT SNOW  27 N/A N/A E9        29.86F VSB 1   WCI  17
CLARION *      CLOUDY    30  30 100 SE17      29.87F FOG     WCI  18
ESTHERVILLE    SNOW      19  16  88 NE13      29.86F VSB 1/4 WCI   6
6HR MIN TEMP:  10; 6HR MAX TEMP:  19; 6HR PCP: TRACE;

FORT DODGE *   MIX PCPN  31  29  92 SE8       29.85F FOG     WCI  23
MASON CITY     LGT SNOW  28  27  96 SE14      29.90F FOG     WCI  17
6HR MIN TEMP:   9; 6HR MAX TEMP:  28; 6HR PCP: TRACE;

FOREST CITY *  LGT SNOW N/A N/A N/A SE8       29.89S
WEBSTER CITY * FOG       32  32 100 SE16G22   29.82F VSB 3/4 WCI  21
IOWA FALLS *   MIX PCPN  32  31  95 SE15      29.88F WCI  22
$$

IAZ007>011-017>019-026>030-037>042-050>054-066-241900-
   NORTHEAST IOWA

CITY           SKY/WX    TMP DP  RH WIND       PRES   REMARKS
CEDAR RAPIDS   CLOUDY    35  30  82 SE20G29   29.90F HAZE    WCI  24
6HR MIN TEMP:  29; 6HR MAX TEMP:  35; 6HR PCP: TRACE;

CHARLES CITY * CLOUDY    32  32 100 SE17      29.90F WCI  21
CLINTON *      CLOUDY    37  33  85 E18       29.97F WCI  27
DECORAH *      CLOUDY    32  28  86 SE16      29.90F WCI  21
DUBUQUE        CLOUDY    32  27  81 SE16      29.96F HAZE    WCI  21
6HR MIN TEMP:  26; 6HR MAX TEMP:  33;

MONTICELLO *   CLOUDY    34  30  86 SE16G23   29.95F WCI  23
OELWEIN *      PTSUNNY   32  32 100 SE26      29.89F WCI  18
WATERLOO       CLOUDY    32  29  88 SE18      29.91F WCI  20
6HR MIN TEMP:  21; 6HR MAX TEMP:  32;

$$

IAZ064-065-067-068-078-241900-
   EAST CENTRAL IOWA

CITY           SKY/WX    TMP DP  RH WIND       PRES   REMARKS
DAVENPORT      CLOUDY    37  32  82 E21       29.97F HAZE    WCI  26
6HR MIN TEMP:  31; 6HR MAX TEMP:  37; 6HR PCP:  0.01;

IOWA CITY      LGT RAIN  36  33  89 E13G21    29.94F FOG     WCI  27
6HR MIN TEMP:  30; 6HR MAX TEMP:  36; 6HR PCP:  0.01;

MT. PLEASANT * RAIN      34  34 100 E14       29.90F WCI  24
MUSCATINE *    CLOUDY    36  34  93 E10G22    29.95F FOG     WCI  28
QUAD CITIES    LGT RAIN  37  34  89 E18       29.95F FOG     WCI  27
6HR MIN TEMP:  32; 6HR MAX TEMP:  37; 6HR PCP:  0.02;

$$

IAZ062-063-075>077-085>089-095>099-241900-
   SOUTHEAST IOWA

CITY           SKY/WX    TMP DP  RH WIND       PRES   REMARKS
BURLINGTON     RAIN      36  36 100 E13       29.91F VSB 1   WCI  27
6HR MIN TEMP:  31; 6HR MAX TEMP:  36; 6HR PCP:  0.04;

FAIRFIELD *    FOG       36  34  93 E17G25    29.86F VSB 1   WCI  25
FORT MADISON * MIX PCPN  36  36 100 E12       29.90F WCI  27
KEOKUK *       CLOUDY    37  37 100 E12       29.89F FOG     WCI  30
OSKALOOSA *    LGT SNOW  33  32  96 E20       29.85F WCI  21
OTTUMWA        LGT RAIN  34  32  92 E15       29.85F FOG     WCI  24
6HR MIN TEMP:  30; 6HR MAX TEMP:  34; 6HR PCP: TRACE;

WASHINGTON *   MIX PCPN  36  36 100 E16G23    29.91F VSB 3/4 WCI  26
$$

ABBREVIATIONS USED IN REMARKS
   TC - TEMPERATURES IN CELSIUS
  WCI - WIND CHILL INDEX
   HX - HEAT INDEX
  VSB - VISIBILITY
$$





USA.gov is the U.S. government's official web portal to all federal, state and local government web resources and services.